Terug naar catalogus

HJS-4C

ActiefWetenschapLEO
NORAD 58693·PAYLOAD·🇨🇳 China

Gelanceerd Dec 30, 2023 vanaf Jiuquan Satellite Launch Center

Loading…

Volgende Passages (komende 24 uur)

TLE

VersSource: Space-Track

Epoch: Sep 14, 2026, 14:55 UTC

1 58693U 23212C   26257.62182049 -.00000114  00000-0  25490-4 0  9996
2 58693  50.0006  16.5566 0000607  29.0575 331.0336 13.41465051133268

Volg HJS-4C in realtime met AllMySat

Download on the App Store